Time,TemperatureF,DewpointF,PressureIn,WindDirection,WindDirectionDegrees,WindSpeedMPH,WindSpeedGustMPH,Humidity,HourlyPrecipIn,Conditions,Clouds,dailyrainin,SoftwareType,DateUTC
2013-03-16 00:10:00,49.4,45.0,30.08,East,86,0.0,0.0,86,0.00,,,0.00,weatherlink.com 1.10,2013-03-16 07:10:00,
2013-03-16 00:25:00,49.2,45.0,30.08,East,86,0.0,0.0,86,0.00,,,0.00,weatherlink.com 1.10,2013-03-16 07:25:00,
2013-03-16 00:41:00,48.5,45.0,30.07,East,86,0.0,0.0,87,0.00,,,0.00,weatherlink.com 1.10,2013-03-16 07:41:00,
2013-03-16 00:56:00,48.2,45.0,30.07,East,86,0.0,0.0,88,0.00,,,0.00,weatherlink.com 1.10,2013-03-16 07:56:00,
2013-03-16 01:11:00,47.9,45.0,30.07,East,86,0.0,0.0,88,0.00,,,0.00,weatherlink.com 1.10,2013-03-16 08:11:00,
2013-03-16 01:26:00,47.4,44.0,30.06,East,86,0.0,0.0,89,0.00,,,0.00,weatherlink.com 1.10,2013-03-16 08:26:00,
2013-03-16 01:41:00,47.0,44.0,30.07,East,86,0.0,0.0,89,0.00,,,0.00,weatherlink.com 1.10,2013-03-16 08:41:00,
2013-03-16 02:11:00,46.7,44.0,30.08,East,86,0.0,0.0,91,0.00,,,0.00,weatherlink.com 1.10,2013-03-16 09:11:00,
2013-03-16 03:11:00,46.2,44.0,30.07,East,86,0.0,0.0,92,0.00,,,0.00,weatherlink.com 1.10,2013-03-16 10:11:00,
2013-03-16 03:41:00,45.8,44.0,30.07,East,86,0.0,0.0,92,0.00,,,0.00,weatherlink.com 1.10,2013-03-16 10:41:00,
2013-03-16 03:56:00,45.4,43.0,30.06,East,86,0.0,0.0,92,0.00,,,0.00,weatherlink.com 1.10,2013-03-16 10:56:00,
2013-03-16 04:11:00,45.1,43.0,30.06,East,86,0.0,0.0,92,0.00,,,0.00,weatherlink.com 1.10,2013-03-16 11:11:00,
2013-03-16 04:26:00,45.1,43.0,30.07,East,86,0.0,0.0,93,0.00,,,0.00,weatherlink.com 1.10,2013-03-16 11:26:00,
2013-03-16 04:41:00,44.8,43.0,30.07,East,86,0.0,0.0,93,0.00,,,0.00,weatherlink.com 1.10,2013-03-16 11:41:00,
2013-03-16 04:56:00,44.8,43.0,30.06,East,86,0.0,0.0,93,0.00,,,0.00,weatherlink.com 1.10,2013-03-16 11:56:00,
2013-03-16 05:11:00,44.8,43.0,30.06,East,86,0.0,0.0,93,0.00,,,0.00,weatherlink.com 1.10,2013-03-16 12:11:00,
2013-03-16 05:26:00,44.8,43.0,30.05,East,86,0.0,0.0,93,0.00,,,0.00,weatherlink.com 1.10,2013-03-16 12:26:00,
2013-03-16 05:41:00,44.7,43.0,30.05,East,86,0.0,0.0,93,0.00,,,0.00,weatherlink.com 1.10,2013-03-16 12:41:00,
2013-03-16 05:56:00,44.3,42.0,30.05,East,86,0.0,0.0,93,0.00,,,0.00,weatherlink.com 1.10,2013-03-16 12:56:00,
2013-03-16 06:11:00,44.1,42.0,30.06,East,86,0.0,0.0,93,0.00,,,0.00,weatherlink.com 1.10,2013-03-16 13:11:00,
2013-03-16 06:26:00,43.7,42.0,30.06,East,86,0.0,0.0,93,0.00,,,0.00,weatherlink.com 1.10,2013-03-16 13:26:00,
2013-03-16 06:41:00,43.6,42.0,30.06,East,86,0.0,0.0,94,0.00,,,0.00,weatherlink.com 1.10,2013-03-16 13:41:00,
2013-03-16 06:56:00,43.5,42.0,30.07,East,86,0.0,0.0,94,0.00,,,0.00,weatherlink.com 1.10,2013-03-16 13:56:00,
2013-03-16 07:11:00,43.3,42.0,30.08,East,86,0.0,0.0,94,0.00,,,0.00,weatherlink.com 1.10,2013-03-16 14:11:00,
2013-03-16 07:26:00,43.3,42.0,30.08,East,86,0.0,0.0,94,0.00,,,0.00,weatherlink.com 1.10,2013-03-16 14:26:00,
2013-03-16 07:41:00,43.4,42.0,30.08,East,86,0.0,0.0,94,0.00,,,0.00,weatherlink.com 1.10,2013-03-16 14:41:00,
2013-03-16 07:56:00,43.8,42.0,30.08,East,86,0.0,0.0,94,0.00,,,0.00,weatherlink.com 1.10,2013-03-16 14:56:00,
2013-03-16 08:11:00,44.3,43.0,30.09,East,86,0.0,0.0,95,0.00,,,0.00,weatherlink.com 1.10,2013-03-16 15:11:00,
2013-03-16 08:26:00,45.1,44.0,30.10,East,86,0.0,0.0,95,0.00,,,0.00,weatherlink.com 1.10,2013-03-16 15:26:00,
2013-03-16 08:41:00,45.8,45.0,30.09,East,86,0.0,0.0,95,0.00,,,0.00,weatherlink.com 1.10,2013-03-16 15:41:00,
2013-03-16 08:56:00,46.8,46.0,30.08,East,86,0.0,0.0,95,0.00,,,0.00,weatherlink.com 1.10,2013-03-16 15:56:00,
2013-03-16 09:11:00,47.9,47.0,30.09,East,86,0.0,1.0,95,0.00,,,0.00,weatherlink.com 1.10,2013-03-16 16:11:00,
2013-03-16 09:26:00,49.1,48.0,30.09,East,86,0.0,2.0,94,0.00,,,0.00,weatherlink.com 1.10,2013-03-16 16:26:00,
2013-03-16 09:41:00,50.9,48.0,30.09,East,95,1.0,1.0,90,0.00,,,0.00,weatherlink.com 1.10,2013-03-16 16:41:00,
2013-03-16 09:56:00,53.4,48.0,30.09,East,95,0.0,1.0,83,0.00,,,0.00,weatherlink.com 1.10,2013-03-16 16:56:00,
2013-03-16 10:12:00,55.8,47.0,30.10,ENE,68,0.0,5.0,73,0.00,,,0.00,weatherlink.com 1.10,2013-03-16 17:12:00,
2013-03-16 10:27:00,57.7,46.0,30.12,East,82,5.0,5.0,66,0.00,,,0.00,weatherlink.com 1.10,2013-03-16 17:27:00,
2013-03-16 10:42:00,58.6,47.0,30.12,ESE,122,0.0,4.0,66,0.00,,,0.00,weatherlink.com 1.10,2013-03-16 17:42:00,
2013-03-16 10:57:00,59.8,46.0,30.12,ESE,102,1.0,4.0,60,0.00,,,0.00,weatherlink.com 1.10,2013-03-16 17:57:00,
2013-03-16 11:12:00,61.5,43.0,30.12,South,182,0.0,7.0,52,0.00,,,0.00,weatherlink.com 1.10,2013-03-16 18:12:00,
2013-03-16 11:27:00,62.7,44.0,30.11,SE,125,0.0,3.0,50,0.00,,,0.00,weatherlink.com 1.10,2013-03-16 18:27:00,
2013-03-16 11:42:00,62.8,44.0,30.10,ESE,103,0.0,3.0,50,0.00,,,0.00,weatherlink.com 1.10,2013-03-16 18:42:00,
2013-03-16 11:57:00,63.7,44.0,30.10,SSW,194,0.0,4.0,49,0.00,,,0.00,weatherlink.com 1.10,2013-03-16 18:57:00,
2013-03-16 12:12:00,64.9,46.0,30.11,WNW,298,2.0,4.0,51,0.00,,,0.00,weatherlink.com 1.10,2013-03-16 19:12:00,
2013-03-16 12:27:00,65.8,47.0,30.09,ENE,75,0.0,5.0,51,0.00,,,0.00,weatherlink.com 1.10,2013-03-16 19:27:00,
2013-03-16 12:42:00,66.3,44.0,30.09,NE,46,0.0,5.0,45,0.00,,,0.00,weatherlink.com 1.10,2013-03-16 19:42:00,
2013-03-16 12:57:00,66.4,44.0,30.09,East,81,1.0,8.0,45,0.00,,,0.00,weatherlink.com 1.10,2013-03-16 19:57:00,
2013-03-16 13:12:00,67.5,46.0,30.08,South,178,0.0,8.0,46,0.00,,,0.00,weatherlink.com 1.10,2013-03-16 20:12:00,
2013-03-16 13:27:00,68.4,44.0,30.08,ENE,74,5.0,5.0,42,0.00,,,0.00,weatherlink.com 1.10,2013-03-16 20:27:00,
2013-03-16 13:42:00,69.9,48.0,30.08,East,84,3.0,4.0,45,0.00,,,0.00,weatherlink.com 1.10,2013-03-16 20:42:00,
2013-03-16 13:57:00,70.1,43.0,30.08,SSE,155,2.0,5.0,38,0.00,,,0.00,weatherlink.com 1.10,2013-03-16 20:57:00,
2013-03-16 14:12:00,70.8,40.0,30.07,East,98,1.0,7.0,33,0.00,,,0.00,weatherlink.com 1.10,2013-03-16 21:12:00,
2013-03-16 14:27:00,71.6,40.0,30.06,ENE,69,0.0,7.0,32,0.00,,,0.00,weatherlink.com 1.10,2013-03-16 21:27:00,
2013-03-16 14:42:00,71.5,40.0,30.06,ENE,76,0.0,5.0,32,0.00,,,0.00,weatherlink.com 1.10,2013-03-16 21:42:00,
2013-03-16 14:57:00,70.8,41.0,30.06,ESE,120,0.0,8.0,34,0.00,,,0.00,weatherlink.com 1.10,2013-03-16 21:57:00,
2013-03-16 15:12:00,71.8,46.0,30.05,ESE,120,2.0,7.0,40,0.00,,,0.00,weatherlink.com 1.10,2013-03-16 22:12:00,
2013-03-16 15:27:00,71.8,39.0,30.05,East,92,1.0,10.0,30,0.00,,,0.00,weatherlink.com 1.10,2013-03-16 22:27:00,
2013-03-16 15:42:00,71.3,41.0,30.05,ENE,59,2.0,7.0,34,0.00,,,0.00,weatherlink.com 1.10,2013-03-16 22:42:00,
2013-03-16 15:57:00,70.2,37.0,30.05,ESE,119,1.0,9.0,30,0.00,,,0.00,weatherlink.com 1.10,2013-03-16 22:57:00,
2013-03-16 16:12:00,70.0,40.0,30.05,East,92,5.0,10.0,33,0.00,,,0.00,weatherlink.com 1.10,2013-03-16 23:12:00,
2013-03-16 16:27:00,69.5,40.0,30.05,NE,49,2.0,6.0,34,0.00,,,0.00,weatherlink.com 1.10,2013-03-16 23:27:00,
2013-03-16 16:42:00,68.3,43.0,30.05,ENE,78,2.0,11.0,40,0.00,,,0.00,weatherlink.com 1.10,2013-03-16 23:42:00,
2013-03-16 16:57:00,67.6,44.0,30.04,East,101,1.0,3.0,43,0.00,,,0.00,weatherlink.com 1.10,2013-03-16 23:57:00,
2013-03-16 17:12:00,67.6,40.0,30.04,East,88,0.0,11.0,37,0.00,,,0.00,weatherlink.com 1.10,2013-03-17 00:12:00,
2013-03-16 17:27:00,67.4,40.0,30.03,East,97,0.0,9.0,37,0.00,,,0.00,weatherlink.com 1.10,2013-03-17 00:27:00,
2013-03-16 17:42:00,67.0,41.0,30.04,SE,136,5.0,7.0,39,0.00,,,0.00,weatherlink.com 1.10,2013-03-17 00:42:00,
2013-03-16 17:58:00,65.7,41.0,30.04,East,88,1.0,5.0,41,0.00,,,0.00,weatherlink.com 1.10,2013-03-17 00:58:00,
2013-03-16 18:13:00,65.0,42.0,30.04,East,82,0.0,7.0,43,0.00,,,0.00,weatherlink.com 1.10,2013-03-17 01:13:00,
2013-03-16 18:27:00,64.3,43.0,30.05,East,99,0.0,5.0,47,0.00,,,0.00,weatherlink.com 1.10,2013-03-17 01:27:00,
2013-03-16 18:43:00,62.6,42.0,30.04,East,89,0.0,3.0,48,0.00,,,0.00,weatherlink.com 1.10,2013-03-17 01:43:00,
2013-03-16 18:58:00,61.4,43.0,30.05,South,171,0.0,4.0,52,0.00,,,0.00,weatherlink.com 1.10,2013-03-17 01:58:00,
2013-03-16 19:13:00,60.2,43.0,30.05,SE,131,0.0,1.0,53,0.00,,,0.00,weatherlink.com 1.10,2013-03-17 02:13:00,
2013-03-16 19:28:00,58.7,43.0,30.05,SE,143,3.0,4.0,56,0.00,,,0.00,weatherlink.com 1.10,2013-03-17 02:28:00,
2013-03-16 19:43:00,57.7,43.0,30.06,ENE,71,0.0,4.0,58,0.00,,,0.00,weatherlink.com 1.10,2013-03-17 02:43:00,
2013-03-16 19:58:00,56.4,42.0,30.06,SE,126,0.0,4.0,59,0.00,,,0.00,weatherlink.com 1.10,2013-03-17 02:58:00,
2013-03-16 20:13:00,56.1,42.0,30.07,East,82,0.0,3.0,60,0.00,,,0.00,weatherlink.com 1.10,2013-03-17 03:13:00,
2013-03-16 20:28:00,55.5,42.0,30.08,East,92,0.0,2.0,61,0.00,,,0.00,weatherlink.com 1.10,2013-03-17 03:28:00,
2013-03-16 20:43:00,54.9,42.0,30.08,East,92,0.0,2.0,63,0.00,,,0.00,weatherlink.com 1.10,2013-03-17 03:43:00,
2013-03-16 20:58:00,54.0,42.0,30.09,East,92,0.0,0.0,64,0.00,,,0.00,weatherlink.com 1.10,2013-03-17 03:58:00,
2013-03-16 21:13:00,53.6,42.0,30.08,ESE,111,0.0,4.0,66,0.00,,,0.00,weatherlink.com 1.10,2013-03-17 04:13:00,
2013-03-16 21:28:00,53.0,43.0,30.10,ESE,103,0.0,2.0,68,0.00,,,0.00,weatherlink.com 1.10,2013-03-17 04:28:00,
2013-03-16 21:43:00,52.6,42.0,30.11,ESE,103,0.0,1.0,68,0.00,,,0.00,weatherlink.com 1.10,2013-03-17 04:43:00,
2013-03-16 21:58:00,52.1,42.0,30.12,ESE,103,0.0,2.0,69,0.00,,,0.00,weatherlink.com 1.10,2013-03-17 04:58:00,
2013-03-16 22:13:00,51.3,42.0,30.12,ESE,103,0.0,0.0,71,0.00,,,0.00,weatherlink.com 1.10,2013-03-17 05:13:00,
2013-03-16 22:28:00,50.8,42.0,30.13,ESE,105,0.0,2.0,71,0.00,,,0.00,weatherlink.com 1.10,2013-03-17 05:28:00,
2013-03-16 22:43:00,51.0,42.0,30.13,ESE,105,0.0,0.0,72,0.00,,,0.00,weatherlink.com 1.10,2013-03-17 05:43:00,
2013-03-16 22:58:00,50.1,42.0,30.13,ESE,105,0.0,1.0,73,0.00,,,0.00,weatherlink.com 1.10,2013-03-17 05:58:00,
2013-03-16 23:13:00,49.3,41.0,30.14,ESE,105,0.0,2.0,74,0.00,,,0.00,weatherlink.com 1.10,2013-03-17 06:13:00,
2013-03-16 23:28:00,49.0,41.0,30.14,ESE,105,1.0,1.0,75,0.00,,,0.00,weatherlink.com 1.10,2013-03-17 06:28:00,
2013-03-16 23:43:00,48.2,41.0,30.14,ESE,106,0.0,2.0,77,0.00,,,0.00,weatherlink.com 1.10,2013-03-17 06:43:00,
2013-03-16 23:58:00,47.7,41.0,30.14,ESE,106,0.0,2.0,77,0.00,,,0.00,weatherlink.com 1.10,2013-03-17 06:58:00,